Location: Arboyeti
(42.1122°N, 44.6017°E)
Time: 21:09:37
(UTC+00:00)

Cosmos 1825 - Pass Details

Date: 19 April 2021
Orbit: 502 x 505 km, 82.5° (Epoch: 17 May)

Event Time Altitude Azimuth Distance (km) Brightness Sun altitude
Rises 16:35:46 0° 0° (N) 2,616 6.1 -9.2°
Reaches altitude 10° 16:38:03 10° 10° (N) 1,726 5.1 -9.6°
Maximum altitude 16:41:32 35° 77° (ENE) 839 2.9 -10.2°
Enters shadow 16:44:29 13° 141° (SE) 1,526 4.0 -10.7°
